EW9372 Weather Reports


Display with metric or nautical units.
time (UTC)temp
F
wind
direction
speed
MPH
gust
MPH
rain 1hr
in
rain 24hr
in
rain mn
in
humidity
%
barometer
mb
20260509004104 86 70 1.0 4.0 0.00 0.00 0.00 40 1012.9
20260509003016 87 5 1.0 5.0 0.00 0.00 0.00 40 1013.1
20260509002531 87 247 2.0 5.0 0.00 0.00 0.00 40 1013.1
20260509002018 87 26 2.0 0.0 0.00 0.00 0.00 41 1013.1
20260509001730 87 269 1.0 5.0 0.00 0.00 0.00 42 1013.2
20260509001252 87 241 1.0 3.0 0.00 0.00 0.00 41 1013.2
20260509000213 87 238 1.0 3.0 0.00 0.00 0.00 42 1013.2
20260508235210 87 41 1.0 0.0 0.00 0.00 0.00 40 1013.1
20260508234857 86 241 0.0 3.0 0.00 0.00 0.00 41 1013.2
20260508233342 86 69 0.0 4.0 0.00 0.00 0.00 42 1013.3
20260508232822 87 69 1.0 4.0 0.00 0.00 0.00 41 1013.4
20260508232317 86 24 1.0 5.0 0.00 0.00 0.00 42 1013.5
20260508231811 86 69 2.0 5.0 0.00 0.00 0.00 40 1013.5
20260508231303 86 5 1.0 4.0 0.00 0.00 0.00 43 1013.5
20260508230807 87 24 1.0 4.0 0.00 0.00 0.00 42 1013.6
20260508230304 86 237 0.0 4.0 0.00 0.00 0.00 43 1013.6
20260508225811 85 252 2.0 6.0 0.00 0.00 0.00 43 1013.8
20260508225807 86 5 1.0 4.0 0.00 0.00 0.00 42 1013.7
20260508224801 85 48 2.0 6.0 0.00 0.00 0.00 44 1013.8
20260508224304 85 64 1.0 6.0 0.00 0.00 0.00 45 1014.0
20260508223811 85 66 2.0 7.0 0.00 0.00 0.00 46 1014.4
20260508223807 85 13 2.0 6.0 0.00 0.00 0.00 46 1014.1
20260508223301 85 35 2.0 6.0 0.00 0.00 0.00 45 1014.2
20260508222301 85 71 3.0 7.0 0.00 0.00 0.00 45 1014.4
20260508221759 84 34 2.0 7.0 0.00 0.00 0.00 47 1014.2
20260508221302 84 57 2.0 4.0 0.00 0.00 0.00 48 1014.4
20260508220310 85 355 1.0 7.0 0.00 0.00 0.00 47 1014.9
20260508220015 84 252 2.0 7.0 0.00 0.00 0.00 46 1014.7
20260508214804 84 239 2.0 6.0 0.00 0.00 0.00 46 1014.8
20260508214312 83 243 2.0 7.0 0.00 0.00 0.00 45 1015.2
20260508214307 83 308 3.0 10.0 0.00 0.00 0.00 45 1014.9
20260508213801 83 42 3.0 10.0 0.00 0.00 0.00 46 1015.0
20260508213301 84 62 1.0 7.0 0.00 0.00 0.00 45 1015.2
20260508212301 82 49 2.0 7.0 0.00 0.00 0.00 46 1015.2
20260508211759 83 240 2.0 7.0 0.00 0.00 0.00 45 1015.3
20260508211300 84 10 2.0 5.0 0.00 0.00 0.00 44 1015.5
20260508210801 83 257 2.0 5.0 0.00 0.00 0.00 44 1015.5
20260508210302 82 38 2.0 7.0 0.00 0.00 0.00 45 1015.5
20260508210257 82 263 2.0 7.0 0.00 0.00 0.00 44 1015.4
20260508205259 82 221 3.0 4.0 0.00 0.00 0.00 46 1015.5
20260508203953 81 239 1.0 5.0 0.00 0.00 0.00 48 1015.6
20260508203454 80 217 1.0 4.0 0.00 0.00 0.00 49 1015.6
20260508202957 80 355 2.0 6.0 0.00 0.00 0.00 50 1015.7
20260508202952 79 229 1.0 5.0 0.00 0.00 0.00 49 1015.5
20260508201954 79 248 2.0 6.0 0.00 0.00 0.00 49 1015.6
20260508201948 78 23 2.0 7.0 0.00 0.00 0.00 48 1015.5
20260508200948 79 9 2.0 7.0 0.00 0.00 0.00 50 1015.5
20260508200449 80 232 1.0 5.0 0.00 0.00 0.00 50 1015.7
20260508195946 78 239 2.0 5.0 0.00 0.00 0.00 51 1015.7
20260508195450 78 243 2.0 1.0 0.00 0.00 0.00 50 1015.7
20260508194558 76 42 1.0 6.0 0.00 0.00 0.00 53 1015.9
20260508194304 77 220 2.0 6.0 0.00 0.00 0.00 51 1016.1
20260508193826 76 5 1.0 2.0 0.00 0.00 0.00 52 1016.0
20260508191840 77 257 2.0 6.0 0.00 0.00 0.00 53 1016.0
20260508191341 75 247 1.0 6.0 0.00 0.00 0.00 56 1016.0
20260508190841 76 239 2.0 6.0 0.00 0.00 0.00 56 1016.0
20260508190331 75 238 2.0 6.0 0.00 0.00 0.00 55 1016.1
20260508185824 74 257 2.0 5.0 0.00 0.00 0.00 56 1016.2
20260508185324 75 248 3.0 7.0 0.00 0.00 0.00 56 1016.3
20260508184827 74 239 2.0 7.0 0.00 0.00 0.00 56 1016.3
20260508184325 74 281 2.0 5.0 0.00 0.00 0.00 56 1016.3
20260508183825 74 211 2.0 5.0 0.00 0.00 0.00 58 1016.2
20260508183821 74 244 2.0 5.0 0.00 0.00 0.00 59 1016.2
20260508183551 73 221 2.0 5.0 0.00 0.00 0.00 60 1016.2
20260508182810 73 219 3.0 2.0 0.00 0.00 0.00 59 1016.2
20260508181427 73 277 2.0 6.0 0.00 0.00 0.00 61 1016.2
20260508180424 72 237 2.0 6.0 0.00 0.00 0.00 61 1016.3
20260508175923 72 153 2.0 4.0 0.00 0.00 0.00 62 1016.2
20260508175421 72 196 2.0 6.0 0.00 0.00 0.00 62 1016.3
20260508174920 71 242 2.0 6.0 0.00 0.00 0.00 62 1016.1
20260508174416 70 248 3.0 5.0 0.00 0.00 0.00 63 1016.2
20260508173906 70 230 3.0 1.0 0.00 0.00 0.00 64 1016.1
20260508172704 69 252 3.0 5.0 0.00 0.00 0.00 65 1016.2
20260508172159 68 249 2.0 6.0 0.00 0.00 0.00 66 1016.3
20260508171658 68 247 2.0 5.0 0.00 0.00 0.00 66 1016.2
20260508171654 69 223 2.0 6.0 0.00 0.00 0.00 65 1016.2
20260508171151 69 198 2.0 5.0 0.00 0.00 0.00 66 1016.2
20260508170153 68 243 2.0 5.0 0.00 0.00 0.00 67 1016.1
20260508165656 68 211 2.0 5.0 0.00 0.00 0.00 66 1016.2
20260508165158 68 173 2.0 5.0 0.00 0.00 0.00 68 1016.1
20260508164655 67 202 2.0 7.0 0.00 0.00 0.00 68 1016.0
20260508164646 67 194 2.0 5.0 0.00 0.00 0.00 68 1016.1
20260508164148 67 183 3.0 7.0 0.00 0.00 0.00 67 1016.1
20260508163146 67 260 2.0 5.0 0.00 0.00 0.00 69 1015.9
20260508162647 66 202 3.0 5.0 0.00 0.00 0.00 70 1015.9
20260508162149 65 229 2.0 3.0 0.00 0.00 0.00 71 1015.8
20260508160855 63 242 2.0 5.0 0.00 0.00 0.00 73 1015.8
20260508160850 65 242 3.0 5.0 0.00 0.00 0.00 71 1015.9
20260508155841 64 207 2.0 5.0 0.00 0.00 0.00 73 1016.0
20260508155344 62 227 3.0 6.0 0.00 0.00 0.00 76 1015.9
20260508155340 62 245 3.0 6.0 0.00 0.00 0.00 75 1015.8
20260508154338 62 207 3.0 6.0 0.00 0.00 0.00 76 1015.9
20260508153839 61 162 3.0 6.0 0.00 0.00 0.00 76 1015.9
20260508153337 61 219 2.0 6.0 0.00 0.00 0.00 77 1015.9
20260508152836 61 242 2.0 6.0 0.00 0.00 0.00 77 1015.9
20260508152341 60 187 1.0 5.0 0.00 0.00 0.00 79 1015.7
20260508152336 61 213 2.0 6.0 0.00 0.00 0.00 78 1015.8
20260508151337 59 169 2.0 6.0 0.00 0.00 0.00 82 1015.7
20260508151332 60 202 1.0 5.0 0.00 0.00 0.00 81 1015.7
20260508150332 59 199 2.0 6.0 0.00 0.00 0.00 83 1015.7
20260508145831 58 133 2.0 5.0 0.00 0.00 0.00 84 1015.6
20260508145333 57 198 3.0 5.0 0.00 0.00 0.00 88 1015.3
20260508145329 57 191 3.0 5.0 0.00 0.00 0.00 86 1015.6
20260508144329 56 207 2.0 5.0 0.00 0.00 0.00 89 1015.4
20260508143829 55 207 3.0 6.0 0.00 0.00 0.00 89 1015.2
20260508143329 55 200 4.0 8.0 0.00 0.00 0.00 89 1015.3
20260508142825 55 202 3.0 8.0 0.00 0.00 0.00 89 1015.3
20260508142326 55 198 2.0 6.0 0.00 0.00 0.00 88 1015.2
20260508141822 55 170 2.0 6.0 0.00 0.00 0.00 89 1015.2
20260508141324 55 183 2.0 2.0 0.00 0.00 0.00 89 1015.1
20260508140117 55 173 2.0 6.0 0.00 0.00 0.00 90 1015.0
20260508135616 54 190 3.0 6.0 0.00 0.00 0.00 90 1014.8
20260508135112 54 189 3.0 6.0 0.00 0.00 0.00 90 1014.7
20260508134613 53 184 3.0 6.0 0.00 0.00 0.00 90 1014.6
20260508134605 53 157 3.0 6.0 0.00 0.00 0.00 90 1014.6
20260508133605 53 204 3.0 7.0 0.00 0.00 0.00 90 1014.6
20260508133102 53 211 3.0 7.0 0.00 0.00 0.00 90 1014.6
20260508132603 53 212 3.0 6.0 0.00 0.00 0.00 90 1014.7
20260508132103 53 200 3.0 7.0 0.00 0.00 0.00 90 1014.7
20260508131602 53 220 3.0 7.0 0.00 0.00 0.00 90 1014.6
20260508131059 53 245 3.0 7.0 0.00 0.00 0.00 90 1014.5
20260508130558 53 236 3.0 7.0 0.00 0.00 0.00 90 1014.4
20260508130059 53 221 3.0 6.0 0.00 0.00 0.00 90 1014.5
20260508125558 53 213 4.0 6.0 0.00 0.00 0.00 89 1014.4
20260508125102 53 167 4.0 7.0 0.00 0.00 0.00 90 1014.5
20260508125057 53 173 4.0 7.0 0.00 0.00 0.00 89 1014.4
20260508124057 54 211 4.0 9.0 0.00 0.00 0.00 89 1014.4
20260508124048 54 205 4.0 9.0 0.00 0.00 0.00 89 1014.5
20260508123048 54 197 3.0 7.0 0.00 0.00 0.00 89 1014.4
20260508122547 54 196 3.0 6.0 0.00 0.00 0.00 89 1014.5
20260508122043 54 217 3.0 3.0 0.00 0.00 0.00 89 1014.4
20260508120525 54 202 4.0 6.0 0.00 0.00 0.00 89 1014.4
20260508120028 54 207 3.0 2.0 0.00 0.00 0.00 89 1014.4
20260508114655 55 207 3.0 5.0 0.00 0.00 0.00 88 1014.2
20260508114158 55 224 3.0 6.0 0.00 0.00 0.00 88 1014.3
20260508114154 55 184 3.0 6.0 0.00 0.00 0.00 88 1014.3
20260508113150 55 209 2.0 6.0 0.00 0.00 0.00 88 1014.2
20260508112651 55 208 3.0 5.0 0.00 0.00 0.00 88 1014.2
20260508112144 55 211 3.0 2.0 0.00 0.00 0.00 88 1014.2
20260508110841 56 180 3.0 6.0 0.00 0.00 0.00 88 1014.1
20260508110837 56 188 4.0 6.0 0.00 0.00 0.00 88 1014.1
20260508105835 56 205 3.0 5.0 0.00 0.00 0.00 88 1014.0
20260508105330 56 204 3.0 4.0 0.00 0.00 0.00 88 1014.1
20260508103901 56 175 1.0 4.0 0.00 0.00 0.00 87 1014.1
20260508103405 56 219 2.0 4.0 0.00 0.00 0.00 87 1014.2
20260508102903 56 204 2.0 5.0 0.00 0.00 0.00 87 1014.2
20260508102359 56 195 2.0 5.0 0.00 0.00 0.00 87 1014.2
20260508101901 56 205 2.0 4.0 0.00 0.00 0.00 87 1014.2
20260508101352 56 171 2.0 1.0 0.00 0.00 0.00 87 1014.3
20260508095807 56 211 4.0 6.0 0.00 0.00 0.00 87 1014.2
20260508095802 56 208 3.0 6.0 0.00 0.00 0.00 87 1014.3
20260508094804 57 204 4.0 7.0 0.00 0.00 0.00 86 1014.2
20260508094300 57 157 4.0 7.0 0.00 0.00 0.00 86 1014.2
20260508093801 57 174 2.0 4.0 0.00 0.00 0.00 86 1014.3
20260508092341 57 236 2.0 6.0 0.00 0.00 0.00 85 1014.3
20260508091839 58 210 2.0 5.0 0.00 0.00 0.00 85 1014.3
20260508091342 58 198 2.0 5.0 0.00 0.00 0.00 85 1014.2
20260508090838 58 218 2.0 7.0 0.00 0.00 0.00 85 1014.2
20260508090339 58 194 2.0 7.0 0.00 0.00 0.00 84 1014.2
20260508085840 58 188 1.0 2.0 0.00 0.00 0.00 84 1014.1
20260508084520 59 191 2.0 4.0 0.00 0.00 0.00 84 1014.0
20260508084021 59 172 1.0 2.0 0.00 0.00 0.00 84 1014.0
20260508083558 60 207 2.0 5.0 0.00 0.00 0.00 84 1014.2
20260508082058 60 211 2.0 2.0 0.00 0.00 0.00 84 1014.2
20260508080827 60 182 2.0 5.0 0.00 0.00 0.00 84 1014.2
20260508080327 61 207 2.0 5.0 0.00 0.00 0.00 83 1014.1
20260508075825 61 218 2.0 5.0 0.00 0.00 0.00 83 1014.0
20260508075310 61 227 1.0 1.0 0.00 0.00 0.00 83 1013.9
20260508073915 62 184 1.0 4.0 0.00 0.00 0.00 82 1013.9
20260508073415 62 207 1.0 4.0 0.00 0.00 0.00 81 1013.8
20260508072914 62 190 2.0 5.0 0.00 0.00 0.00 81 1013.8
20260508072414 62 200 2.0 5.0 0.00 0.00 0.00 81 1013.9
20260508071914 63 197 1.0 5.0 0.00 0.00 0.00 80 1013.9
20260508071415 63 180 0.0 3.0 0.00 0.00 0.00 80 1013.8
20260508070915 63 223 0.0 0.0 0.00 0.00 0.00 79 1013.8
20260508070401 64 239 0.0 3.0 0.00 0.00 0.00 79 1013.9
20260508065857 64 213 1.0 4.0 0.00 0.00 0.00 79 1013.8
20260508065353 64 205 2.0 6.0 0.00 0.00 0.00 78 1013.6
20260508065349 64 185 2.0 5.0 0.00 0.00 0.00 79 1013.9
20260508064352 64 205 2.0 6.0 0.00 0.00 0.00 78 1013.7
20260508063849 65 199 2.0 5.0 0.00 0.00 0.00 77 1013.7
20260508063345 65 214 1.0 2.0 0.00 0.00 0.00 77 1013.8
20260508061912 66 205 2.0 5.0 0.00 0.00 0.00 77 1013.8
20260508061356 66 207 2.0 5.0 0.00 0.00 0.00 77 1013.9
20260508060858 67 212 2.0 4.0 0.00 0.00 0.00 77 1013.8
20260508055327 68 215 1.0 4.0 0.00 0.00 0.00 75 1013.9
20260508054833 68 175 1.0 2.0 0.00 0.00 0.00 75 1014.0
20260508054243 70 215 2.0 1.0 0.00 0.00 0.00 72 1013.9
20260508053704 69 194 2.0 5.0 0.00 0.00 0.00 73 1013.9
20260508053202 69 186 2.0 5.0 0.00 0.00 0.00 73 1013.9
20260508051354 71 206 1.0 3.0 0.00 0.00 0.00 69 1014.1
20260508051259 70 210 1.0 5.0 0.00 0.00 0.00 71 1014.1
20260508050759 71 175 1.0 3.0 0.00 0.00 0.00 70 1014.0
20260508050258 71 209 1.0 3.0 0.00 0.00 0.00 69 1014.0
20260508045251 71 192 1.0 3.0 0.00 0.00 0.00 68 1014.0
20260508044741 72 207 2.0 1.0 0.00 0.00 0.00 67 1014.0
20260508043319 73 206 0.0 2.0 0.00 0.00 0.00 66 1013.9
20260508043315 73 194 1.0 3.0 0.00 0.00 0.00 67 1014.0
20260508042316 74 233 0.0 2.0 0.00 0.00 0.00 67 1013.8
20260508041812 74 236 2.0 5.0 0.00 0.00 0.00 66 1013.7
20260508041258 74 238 3.0 7.0 0.00 0.00 0.00 65 1013.8
20260508040751 75 233 2.0 7.0 0.00 0.00 0.00 65 1013.7
20260508040250 75 221 2.0 6.0 0.00 0.00 0.00 64 1013.7
20260508035750 76 234 4.0 7.0 0.00 0.00 0.00 63 1013.7
20260508035745 76 227 3.0 6.0 0.00 0.00 0.00 63 1013.7
20260508034747 77 252 1.0 7.0 0.00 0.00 0.00 59 1013.5
20260508034743 77 231 3.0 7.0 0.00 0.00 0.00 61 1013.6
20260508033744 78 239 0.0 0.0 0.00 0.00 0.00 58 1013.4
20260508033242 78 238 0.0 0.0 0.00 0.00 0.00 57 1013.4
20260508032722 78 238 0.0 0.0 0.00 0.00 0.00 56 1013.5
20260508032220 79 237 0.0 0.0 0.00 0.00 0.00 56 1013.4
20260508031710 79 237 0.0 0.0 0.00 0.00 0.00 55 1013.4
20260508031205 79 237 0.0 0.0 0.00 0.00 0.00 54 1013.4
20260508030658 80 237 0.0 0.0 0.00 0.00 0.00 53 1013.3
20260508030136 80 237 0.0 0.0 0.00 0.00 0.00 53 1013.3
20260508025637 81 237 0.0 0.0 0.00 0.00 0.00 52 1013.3
20260508025130 81 237 0.0 0.0 0.00 0.00 0.00 51 1013.3
20260508024627 81 237 0.0 0.0 0.00 0.00 0.00 51 1013.3
20260508023320 82 237 0.0 0.0 0.00 0.00 0.00 50 1013.3
20260508022814 82 237 0.0 1.0 0.00 0.00 0.00 50 1013.3
20260508022317 82 237 0.0 2.0 0.00 0.00 0.00 49 1013.4
20260508021817 82 237 0.0 2.0 0.00 0.00 0.00 49 1013.4
20260508021309 82 238 0.0 0.0 0.00 0.00 0.00 50 1013.3
20260508020759 82 232 0.0 0.0 0.00 0.00 0.00 48 1013.3
20260508020226 83 232 0.0 2.0 0.00 0.00 0.00 48 1013.2
20260508015720 83 232 0.0 4.0 0.00 0.00 0.00 48 1013.2
20260508015219 83 185 0.0 3.0 0.00 0.00 0.00 49 1013.3
20260508015212 83 231 0.0 4.0 0.00 0.00 0.00 48 1013.3
20260508014204 83 180 0.0 3.0 0.00 0.00 0.00 49 1013.3
20260508013654 83 180 0.0 0.0 0.00 0.00 0.00 49 1013.4
20260508012319 83 42 0.0 3.0 0.00 0.00 0.00 49 1013.6
20260508011819 84 30 1.0 6.0 0.00 0.00 0.00 49 1013.5
20260508011308 84 30 1.0 6.0 0.00 0.00 0.00 49 1013.6
20260508010812 84 244 1.0 6.0 0.00 0.00 0.00 49 1013.5
20260508010312 84 16 0.0 6.0 0.00 0.00 0.00 48 1013.6
20260508010302 84 32 1.0 6.0 0.00 0.00 0.00 49 1013.6
20260508005306 85 277 1.0 5.0 0.00 0.00 0.00 48 1013.7
20260508005301 85 245 1.0 7.0 0.00 0.00 0.00 48 1013.7
20260508004759 85 30 1.0 7.0 0.00 0.00 0.00 47 1013.7